Track FLOCK 3P 21 now! 10-day predictions FLOCK 3P 21 is classified as:
1 41959U 17008M 22145.73313187 .00052521 00000-0 12173-2 0 9992 2 41959 97.2796 216.4834 0004758 276.2815 83.7891 15.42240194293702